Location: Rounton
(54.4000°N, 1.3500°W)
Time: 06:25:59
(UTC+00:00)

A-11 Canister half - Pass Details

Date: 06 December 2021
Orbit: 1516 x 1684 km, 47.2° (Epoch: 21 January)

Event Time Altitude Azimuth Distance (km) Brightness Sun altitude
Rises 12:39:24 0° 284° (WNW) 4,880 11.6 12.5°
Reaches altitude 10° 12:42:58 10° 274° (W) 3,910 11.3 12.4°
Maximum altitude 12:51:15 31° 218° (SW) 2,648 11.5 12.2°
Drops below altitude 10° 12:59:37 10° 162° (SSE) 3,941 12.3 11.9°
Sets 13:03:16 0° 153° (SSE) 4,923 12.4 11.7°
